536  
ASUS45 KPSR 282110  
RWRAZ  
 
ARIZONA HOURLY REGIONAL WEATHER ROUNDUP  
NATIONAL WEATHER SERVICE PHOENIX AZ  
200 PM MST SUN FEB 28 2021  
 
NOTE: FAIR INDICATES FEW OR NO CLOUDS BELOW 12,000 FEET WITH NO  
SIGNIFICANT WEATHER AND/OR S TO VISIBILITY
.  
 
AZZ001>003-036-282200-  
NORTHWEST ARIZONA  
 
CITY SKY/WX TMP DP RH WIND PRES REMARKS
 
BULLHEAD CITY MOSUNNY 57 12 17 NW21 30.26F  
KINGMAN SUNNY 48 3 15 N15G29 30.22F  

 
 
AZZ004>008-015-016-018-282200-  
NORTH CENTRAL ARIZONA  
 
CITY SKY/WX TMP DP RH WIND PRES REMARKS
 
GRAND CANYON SUNNY 34 -12 13 N15G23 30.14F WCI 24  
WILLIAMS SUNNY 34 -17 11 N15G30 30.12S WCI 24  
PRESCOTT SUNNY 42 -10 11 N18G33 30.12S  
FLAGSTAFF MOSUNNY 30 -7 20 N20G31 30.09S WCI 17  
PAYSON MOSUNNY 39 -9 12 NE20G35 30.09S WCI 30  
PAGE SUNNY 44 -8 11 NE10G16 30.19F  

 
 
AZZ009>014-017-282200-  
NORTHEAST ARIZONA  
 
CITY SKY/WX TMP DP RH WIND PRES REMARKS
 
WINSLOW MOSUNNY 44 -8 11 N21G30 30.10S  
SAINT JOHNS PTSUNNY 40 1 19 W14G23 29.99F WCI 32  
WINDOW ROCK CLOUDY 35 -4 18 NW9G18 30.01F WCI 28  
SHOW LOW MOSUNNY 34 -8 16 NW18 30.03F WCI 23  

 
 
AZZ540-542>544-546-548-282200-  
GREATER PHOENIX AREA  
 
CITY SKY/WX TMP DP RH WIND PRES REMARKS
 
PHOENIX PTSUNNY 63 2 8 N14G45 30.07F  
BUCKEYE SUNNY 63 -2 7 NW14G29 30.13F  
GLENDALE MOSUNNY 63 -6 6 N21G28 30.12F  
LUKE AFB SUNNY 63 -2 7 N21G29 30.10F  
DEER VALLEY MOSUNNY 61 2 9 N18G31 30.10S  
SCOTTSDALE MOSUNNY 60 -3 8 N16G25 30.10S  
MESA-FALCON PTSUNNY 62 0 8 N9G18 30.08S  
MESA-GATEWAY PTSUNNY 61 0 8 N23G30 30.08F  
CHANDLER PTSUNNY 61 -2 8 NW17G28 30.09S  

 
 
AZZ539-553-282200-  
SOUTHWEST MARICOPA COUNTY AND PINAL COUNTY  
 
CITY SKY/WX TMP DP RH WIND PRES REMARKS
 
CASA GRANDE N/A 59 4 11 N15G25 30.09F  
GILA BEND FAIR 61 -7 6 NW20G32 30.12F  

 
 
AZZ503-504-507>509-282200-  
SOUTHEAST ARIZONA  
 
CITY SKY/WX TMP DP RH WIND PRES REMARKS
 
TUCSON SUNNY 55 -11 6 NW21G32 30.08S  
DAVIS-MONTHAN SUNNY 54 -9 7 W17G26 30.06R  
NOGALES SUNNY 56 -6 8 W17G25 30.01F  
SIERRA VISTA SUNNY 53 -7 8 NW24G32 29.99S  
SAFFORD SUNNY 56 -5 8 NW24G39 29.95R  

 
 
AZZ532-282200-  
SOUTHWEST ARIZONA  
 
CITY SKY/WX TMP DP RH WIND PRES REMARKS
 
YUMA SUNNY 64 -4 6 N13G24 30.20F  

 
 
CAZ041-043-047-048-061-525>527-560>570-282200-  
SOUTHERN CALIFORNIA  
 
CITY SKY/WX TMP DP RH WIND PRES REMARKS
 
DOWNTOWN L.A. SUNNY 70 24 17 CALM 30.12F  
L.A. AIRPORT PTSUNNY 69 21 16 SW7 30.14F  
SAN DIEGO MOSUNNY 72 24 16 W13 30.12F  
BURBANK SUNNY 69 15 12 SW5 30.11F  
ONTARIO PTSUNNY 67 5 8 NE25G37 30.13F  
RIVERSIDE SUNNY 66 6 9 N14G23 30.17S  
PALM SPRINGS MOSUNNY 66 3 8 VRB7 30.28F  
EL CENTRO NAS SUNNY 66 -3 6 N13G20 30.27F  
IMPERIAL SUNNY 64 4 9 N17 30.24F  
BLYTHE SUNNY 63 0 8 N23G32 30.23F  
NEEDLES SUNNY 60 4 10 N20G30 30.25F  

 
 
NVZ020-UTZ003-282200-  
SOUTHERN NEVADA-UTAH  
 
CITY SKY/WX TMP DP RH WIND PRES REMARKS
 
LAS VEGAS PTSUNNY 51 4 14 N6 30.30F  
SALT LAKE CITY PTSUNNY 35 16 45 N5 30.32F WCI 31  

 
 
NMZ009-TXZ055-282200-  
NEW MEXICO-WEST TEXAS  
 
CITY SKY/WX TMP DP RH WIND PRES REMARKS
 
ALBUQUERQUE MOSUNNY 47 5 18 N8G18 29.93F  
EL PASO MOSUNNY 67 -1 6 W20G31 29.86F  

 
 
   
.......................KEY.....................
 
 
SKY/WX - SKY CONDITION/WEATHER  
TMP - TEMPERATURE IN FAHRENHEIT  
DP - DEW POINT IN FAHRENHEIT  
RH - RELATIVE HUMIDITY IN PERCENT  
WIND - DIRECTION AND SPEED IN MILES PER HOUR (MPH)  
VRB - VARIABLE WIND DIRECTION  
PRES - MEAN SEA LEVEL PRESSURE IN INCHES OF MERCURY  
F - FALLING PRESSURE R - RISING PRESSURE  
S - STEADY PRESSURE  
VSB - VISIBILITY IN MILES  
HX - HEAT INDEX IN FAHRENHEIT  
WCI - WIND CHILL INDEX IN FAHRENHEIT  
TC - TEMPERATURE IN CELSIUS WHICH IS ALSO KNOWN AS  
TEMPERATURE IN CENTIGRADE  
AFB - AIR FORCE BASE  
LUKE AFB IS LUKE AIR FORCE BASE  
DAVIS-MONTHAN IS DAVIS-MONTHAN AIR FORCE BASE  
NAS - NAVAL AIR STATION  
EL CENTRO NAS IS EL CENTRO NAVAL AIR STATION  
N/A - NOT AVAILABLE  
 
 
 
CLICK HERE TO GO TO PREVIOUS BULLETINS.

The Nexlab AZ Page Main Text Page